Temperature
28 28 26 27 28 29 29 29 28 29 29 29 29 29 29 29 28 27 27 26 25 24 23 22 21 20 20 19 18 18 17 16 16 15 15 14 14 13 13 13 12 12 12 11
28 28 28 28 29 29 30 30 29 29 29 30 29 29 29 28 28 27 27 26 25 24 23 21 21 20 19 19 18 18 17 17 16 16 15 15 14 14 13 13 12 12 12 11
27 28 28 26 28 29 29 30 29 28 29 29 29 29 28 28 28 27 27 26 25 24 23 22 21 20 20 19 18 18 17 17 16 16 15 15 14 14 13 13 13 12 12 12
27 27 26 28 28 29 28 29 29 29 29 29 29 28 28 28 27 27 26 26 25 24 23 22 21 20 20 19 18 18 18 17 17 16 15 15 15 14 14 13 13 13 12 12
27 27 27 27 27 27 26 26 28 28 28 28 28 28 28 27 27 26 26 26 25 24 24 23 22 21 20 19 18 18 18 17 17 16 16 15 15 14 14 13 13 13 12 12
26 26 26 26 25 25 25 24 26 26 27 27 27 26 26 26 26 26 26 25 25 24 24 23 22 21 20 19 19 18 18 17 17 16 16 15 15 15 14 14 13 13 12 12
25 26 26 26 26 25 23 22 24 25 25 26 25 25 25 25 25 25 25 24 24 24 24 23 22 22 21 20 19 19 18 17 17 16 16 16 15 15 14 14 13 13 12 12
25 24 23 23 24 23 22 23 23 24 24 24 24 24 24 24 23 23 23 23 23 23 23 22 22 21 20 20 19 18 17 17 16 16 16 15 15 15 14 14 13 13 12 12
25 24 21 21 21 21 22 22 22 23 23 23 23 22 22 21 21 21 21 21 21 21 21 21 21 20 20 19 18 17 17 17 16 16 16 16 15 15 14 13 13 12 12 12
24 22 21 21 21 22 22 22 22 22 21 21 21 21 20 20 19 19 19 19 19 20 19 19 19 19 18 18 17 17 16 16 16 15 15 15 15 14 14 13 13 13 13 13
23 22 20 20 21 21 21 21 21 21 20 20 20 19 19 18 18 18 18 18 18 18 18 18 18 17 17 17 16 16 15 15 15 15 15 14 14 14 14 14 13 13 13 12
23 22 22 20 21 21 21 20 20 19 19 19 18 18 18 17 17 16 16 16 16 16 16 16 16 16 16 15 15 15 14 14 14 14 14 14 14 14 14 14 14 13 13 13
23 23 22 21 21 21 20 20 19 19 18 18 17 17 16 16 16 15 15 15 15 15 15 15 14 14 14 14 14 13 13 13 13 13 13 14 14 14 14 14 14 14 13 13
21 21 21 21 20 20 19 19 19 18 17 17 16 16 16 15 15 15 14 14 14 14 14 14 13 13 13 13 12 12 12 12 12 13 13 13 13 14 14 14 13 13 13 13
20 20 19 19 19 18 18 18 18 17 16 16 16 15 15 15 14 14 14 13 13 13 13 12 12 12 12 12 11 11 11 11 12 12 12 13 13 13 13 13 13 13 13 13
19 19 19 18 17 17 17 17 16 16 16 15 15 15 14 14 14 13 13 13 12 12 12 12 11 11 11 11 10 10 11 11 11 12 12 12 13 13 13 13 13 13 12 12
19 18 17 17 16 16 16 16 15 15 15 15 14 14 14 13 13 13 12 12 11 11 11 11 11 10 10 10 10 10 10 10 11 11 12 12 12 12 12 12 12 12 12 12
17 16 15 15 15 15 15 15 15 14 14 14 13 13 13 12 12 12 11 11 11 11 11 11 10 10 10 10 9 9 9 10 10 10 10 11 11 11 11 11 11 11 11 11
16 15 15 15 15 15 14 14 14 14 13 13 13 12 12 12 11 11 11 11 11 11 10 10 10 10 9 9 9 9 9 9 9 9 9 10 10 10 10 11 11 11 10 10
15 15 15 15 15 14 14 14 13 13 13 12 12 12 11 11 11 11 11 11 11 10 10 10 9 9 9 9 8 8 8 8 8 9 9 9 9 9 9 9 10 10 10 9
15 15 14 14 14 14 13 13 13 12 12 12 12 11 11 11 11 11 11 11 10 10 10 9 9 9 8 8 8 7 7 7 8 8 8 8 8 8 8 9 9 9 9 9
14 14 14 13 13 13 12 12 12 12 12 12 11 11 11 11 11 11 11 10 10 10 9 9 8 8 7 7 7 7 7 7 7 7 7 7 7 7 7 7 8 8 8 8
13 13 13 12 12 12 12 12 12 12 12 11 11 11 11 11 11 11 11 10 10 9 8 8 7 7 7 6 6 5 5 5 5 5 6 6 6 6 6 7 7 7 7 7
12 12 12 12 12 12 12 12 12 11 11 11 11 11 11 11 11 11 10 9 9 8 8 7 6 6 5 5 5 4 4 4 4 4 4 5 5 5 5 6 6 6 6 6
12 12 12 12 12 12 12 12 12 12 12 12 12 11 11 11 11 10 9 9 8 7 6 6 5 5 4 4 3 3 3 3 3 3 4 4 4 4 5 5 5 5 5 6
12 12 12 12 11 11 11 11 12 12 11 11 11 11 11 10 10 9 8 8 7 6 5 5 4 3 3 3 3 2 2 2 2 3 3 3 3 3 4 4 4 4 5 5
12 12 12 12 12 11 11 11 11 11 11 10 10 10 10 9 9 8 7 6 6 5 4 4 3 2 2 2 2 2 2 2 2 2 2 2 2 3 3 3 4 4 4 4
Wind_Speed
13 8 10 13 14 11 10 9 9 8 6 2 3 4 3 4 6 6 7 9 8 8 9 8 8 8 7 7 7 6 6 6 6 6 6 6 6 6 6 6 8 7 7 7
15 12 12 14 13 10 10 9 8 7 4 4 5 3 1 1 3 4 6 8 10 10 11 11 9 9 9 8 8 7 7 6 6 6 6 6 6 6 6 6 7 6 7 8
14 14 11 10 10 9 8 5 5 3 1 2 1 1 0 2 3 4 5 6 8 10 11 11 11 10 10 9 8 8 8 8 7 6 7 7 7 6 6 6 6 7 7 8
13 15 16 6 3 4 5 3 3 3 2 1 2 1 2 3 3 2 3 4 6 8 10 12 12 12 10 10 10 9 9 9 8 8 7 7 6 6 6 6 6 7 7 8
12 14 12 7 6 6 6 6 7 5 5 6 5 4 2 2 0 2 3 3 5 7 10 12 13 12 12 11 11 11 11 10 9 8 7 6 6 6 6 6 7 7 8 9
12 14 14 3 3 2 1 2 9 8 9 9 8 5 3 4 2 3 2 2 3 6 7 9 11 12 13 13 11 12 11 10 9 7 7 6 6 6 6 6 7 8 9 9
13 14 6 6 3 2 2 1 8 9 8 8 7 7 8 8 7 6 4 2 2 3 4 5 8 9 10 11 11 10 9 8 8 7 7 7 7 7 7 8 9 9 9 9
9 10 2 7 6 5 4 5 8 10 11 10 10 10 11 11 11 10 9 7 5 2 2 1 5 8 8 8 6 6 6 7 7 7 8 9 8 8 8 9 10 10 11 11
2 2 6 6 6 4 4 6 7 9 11 11 11 11 12 12 12 11 11 10 8 6 4 3 0 4 6 6 5 6 7 7 7 7 7 7 7 8 9 9 11 11 10 9
2 7 9 8 6 6 7 7 8 10 11 12 12 12 13 12 13 13 13 12 11 10 8 6 5 2 3 4 5 6 7 7 7 7 9 9 9 10 10 10 10 9 8 7
2 8 11 8 5 7 9 10 10 11 12 13 13 13 13 12 12 12 12 12 12 11 9 9 7 6 4 2 3 5 6 7 8 10 10 10 10 11 11 10 9 9 7 7
2 5 7 8 6 7 9 9 10 10 11 13 13 12 12 11 11 11 12 12 11 11 11 10 9 8 6 4 3 5 7 8 10 10 10 11 11 11 16 18 17 18 18 15
6 6 10 10 8 8 8 8 9 10 10 10 11 11 11 10 10 10 11 11 11 11 10 9 9 8 9 7 6 6 8 9 11 11 12 11 10 9 9 11 17 19 19 19
8 8 9 9 9 8 8 8 8 9 10 10 9 10 10 10 9 10 10 10 11 11 10 10 10 10 10 9 8 9 11 13 13 11 12 12 11 10 9 9 8 8 13 19
7 8 10 10 8 8 8 7 7 8 8 9 9 9 10 10 10 10 10 10 11 11 11 11 11 10 10 10 10 11 13 12 12 12 13 13 11 10 10 10 10 8 6 8
9 10 10 9 8 7 7 7 7 8 9 9 9 10 10 10 10 10 10 11 11 12 11 10 9 10 11 11 12 11 11 16 15 14 14 13 11 11 10 9 8 8 7 7
8 8 7 6 6 5 5 6 7 8 10 10 11 11 11 12 11 11 11 11 11 10 10 9 8 10 11 11 13 13 14 15 17 15 13 12 11 11 9 8 8 8 8 6
11 10 7 5 4 5 6 7 9 10 10 11 12 12 11 11 11 11 12 12 12 11 11 9 9 11 12 11 11 13 14 14 14 14 14 12 12 11 11 10 9 8 7 5
8 6 3 2 3 5 7 8 9 10 11 11 12 11 11 11 12 12 12 12 12 11 8 9 12 12 12 11 12 11 14 16 16 15 14 14 13 11 10 9 7 6 7 5
3 1 2 4 6 7 9 10 11 11 11 12 12 11 12 12 13 13 12 11 9 8 9 10 11 11 11 11 14 14 16 17 16 15 14 13 12 10 9 9 8 6 5 4
2 4 6 7 9 10 11 11 11 12 12 12 11 12 12 12 13 12 11 12 6 6 9 11 9 9 10 13 16 16 16 15 15 14 13 12 11 11 9 8 7 6 4 3
5 7 9 10 11 11 11 11 12 13 13 12 12 13 13 13 13 11 9 8 7 7 9 10 10 11 14 16 15 15 15 14 13 12 12 11 10 9 8 7 6 5 4 4
7 9 10 11 12 12 13 13 14 13 12 12 13 13 13 11 11 11 10 6 8 9 10 9 9 12 15 14 13 13 13 13 12 12 11 11 9 8 6 6 5 4 4 4
10 10 11 12 12 13 14 14 13 11 12 13 13 11 10 10 9 8 8 7 8 9 9 7 9 12 13 11 11 11 11 11 11 10 10 10 8 8 7 6 5 5 5 5
12 12 13 13 13 12 12 12 13 12 12 10 11 11 10 9 9 9 9 9 8 9 9 8 9 12 11 10 10 10 9 10 10 10 9 9 9 8 7 7 7 6 6 6
11 11 11 10 11 10 11 11 10 10 10 11 10 10 10 9 10 9 7 9 10 9 9 8 9 9 9 9 9 9 9 9 9 9 10 9 9 9 8 8 8 7 6 6
11 10 8 9 9 9 9 10 10 11 10 10 11 11 11 10 9 9 10 9 9 9 8 8 8 8 9 9 9 9 8 8 9 9 9 9 9 8 9 9 7 7 7 7
Wind_Direction
289 256 235 247 254 260 265 272 280 292 299 290 155 146 154 178 182 192 176 175 178 169 162 169 175 174 182 192 190 193 192 205 209 210 217 226 236 240 247 255 266 268 271 273
292 284 271 273 272 274 274 275 277 283 304 47 80 89 93 216 212 201 196 196 186 180 176 178 184 188 192 194 191 182 195 213 216 215 222 229 234 239 245 249 256 263 269 273
286 293 290 284 296 299 294 288 287 287 2 62 102 97 99 278 259 232 215 207 193 184 183 182 187 190 195 192 190 188 195 208 214 214 222 227 239 245 250 260 265 264 266 269
280 284 280 287 277 286 286 310 332 352 2 29 71 99 236 246 265 271 250 224 194 186 183 183 187 190 193 193 192 197 200 207 212 215 224 225 229 239 246 252 259 264 266 269
275 279 277 293 336 345 354 2 8 29 31 31 25 332 353 81 111 261 255 221 197 200 200 187 188 188 187 198 196 201 206 206 211 214 220 225 234 239 244 249 257 262 266 263
265 275 287 314 146 221 307 347 7 30 22 8 354 338 41 49 325 293 273 242 208 214 213 186 184 183 186 197 201 205 208 204 204 206 213 224 236 243 248 251 258 264 264 261
264 272 284 45 96 187 215 48 355 9 12 358 4 347 347 351 359 358 350 331 274 236 225 196 178 179 190 200 206 206 204 201 198 198 204 219 228 233 240 248 256 261 267 267
257 273 322 14 35 55 47 19 9 4 5 6 2 360 3 9 17 14 4 358 354 347 313 233 178 179 195 209 209 205 206 207 205 202 216 224 217 226 235 244 255 259 258 259
267 191 130 86 98 108 72 46 22 15 14 14 15 17 19 23 22 21 18 12 7 4 356 357 257 186 207 209 202 211 213 214 216 216 220 227 230 236 241 242 249 257 258 258
21 101 105 104 108 95 78 63 48 39 33 32 32 30 29 29 25 21 20 15 12 10 10 8 358 316 244 220 208 215 224 226 228 230 234 234 234 240 244 247 250 254 258 267
212 125 115 94 90 89 78 65 55 49 46 40 38 35 33 33 28 22 20 17 15 11 6 3 358 348 334 303 251 243 246 247 249 248 247 245 241 240 243 247 250 253 263 269
100 133 126 128 117 92 83 76 68 57 49 43 39 32 32 31 26 21 18 16 12 7 4 0 356 350 343 334 316 285 270 265 264 261 258 254 251 249 235 233 238 231 231 238
89 96 109 114 98 87 85 76 72 64 52 41 35 27 25 21 18 15 12 10 6 358 355 351 349 350 349 349 337 314 295 284 277 273 272 269 263 258 258 244 236 236 235 235
94 99 106 95 84 71 63 58 56 54 43 33 26 18 13 8 4 4 2 358 355 350 350 351 350 351 351 351 344 329 311 297 286 279 278 277 272 266 262 264 263 250 234 230
114 114 111 99 85 70 54 43 36 31 22 14 11 6 1 356 352 350 351 348 348 343 346 345 341 345 350 345 337 324 312 302 297 293 287 282 277 273 269 267 268 268 260 235
114 108 105 96 78 56 41 29 17 8 3 359 356 353 349 345 343 340 343 345 344 340 338 333 337 352 350 340 329 316 305 298 299 298 291 285 280 275 273 273 275 272 267 264
129 118 101 85 66 40 17 6 360 354 351 349 346 345 344 342 337 337 341 340 335 331 326 326 346 349 339 331 323 317 314 311 307 301 296 293 290 284 281 277 276 279 278 270
86 84 79 65 31 2 350 350 349 346 344 341 339 338 337 335 333 333 331 328 323 319 321 337 350 340 328 325 323 317 314 311 312 310 307 302 296 289 282 277 277 282 283 270
101 95 81 41 345 334 341 339 335 336 336 333 329 328 328 326 325 325 323 320 316 315 329 339 334 326 321 332 336 322 316 312 309 306 304 301 298 293 290 284 278 276 277 280
106 74 336 328 334 340 336 332 331 330 327 322 319 319 318 318 320 318 314 309 314 324 328 329 327 322 323 339 340 322 314 311 308 306 306 304 301 298 296 290 285 282 281 283
340 335 331 331 335 333 330 329 325 318 313 312 313 314 315 316 313 308 304 308 322 331 325 320 319 333 340 335 320 315 313 313 311 310 309 307 305 303 298 296 299 298 305 307
335 328 325 325 323 321 321 318 313 308 308 311 313 312 310 305 303 304 305 305 322 351 334 330 341 354 341 326 321 318 318 320 320 320 317 312 308 307 309 317 323 330 336 333
320 319 317 314 313 311 311 308 305 306 309 309 303 299 297 300 303 306 313 336 351 350 339 349 359 349 334 327 327 325 327 329 327 326 326 327 325 326 325 331 340 347 338 342
311 308 306 306 306 304 300 301 303 303 297 293 291 295 300 304 310 319 335 1 7 354 347 9 360 346 332 332 333 335 336 335 332 331 333 333 335 340 343 348 357 355 352 352
299 299 297 296 297 298 304 305 302 298 299 305 311 317 318 323 328 335 340 345 3 359 349 3 6 353 344 342 342 343 341 340 340 338 341 345 348 351 354 1 4 1 358 351
291 290 293 295 295 294 295 299 306 314 319 321 323 326 328 331 335 340 343 349 3 10 1 356 356 353 350 350 351 352 349 344 344 348 350 350 351 352 354 358 358 358 356 356
297 295 291 292 302 310 317 319 317 318 322 325 326 328 332 337 343 347 352 0 7 9 7 4 2 359 359 1 1 360 358 355 354 353 351 353 355 353 354 357 359 356 357 360
Height
1477 1477 1481 1480 1474 1468 1469 1469 1476 1473 1471 1467 1467 1469 1473 1476 1479 1483 1486 1489 1493 1496 1499 1502 1505 1506 1508 1509 1510 1511 1511 1511 1511 1511 1510 1510 1509 1509 1508 1507 1506 1504 1503 1502
1478 1471 1472 1472 1465 1463 1462 1462 1464 1466 1467 1463 1466 1470 1473 1475 1477 1480 1483 1486 1489 1492 1495 1498 1500 1502 1504 1505 1506 1506 1506 1507 1507 1507 1507 1506 1506 1505 1504 1503 1501 1500 1498 1497
1481 1470 1472 1480 1468 1462 1461 1458 1461 1468 1466 1464 1466 1469 1472 1474 1476 1478 1480 1483 1485 1488 1490 1493 1495 1497 1499 1500 1501 1501 1502 1502 1502 1502 1502 1502 1501 1501 1500 1499 1497 1495 1494 1492
1479 1477 1489 1471 1458 1459 1461 1460 1459 1460 1462 1463 1466 1469 1471 1473 1475 1476 1478 1480 1482 1484 1486 1488 1490 1492 1494 1495 1496 1496 1497 1497 1498 1498 1498 1498 1497 1496 1495 1493 1492 1490 1488 1487
1478 1479 1474 1464 1461 1463 1468 1468 1463 1463 1464 1465 1467 1469 1469 1471 1474 1476 1477 1478 1479 1481 1482 1483 1485 1487 1488 1490 1491 1491 1492 1492 1493 1493 1493 1493 1492 1491 1489 1488 1486 1485 1483 1481
1476 1481 1482 1469 1464 1464 1471 1480 1470 1468 1468 1469 1469 1472 1473 1473 1474 1474 1475 1475 1476 1477 1478 1479 1480 1481 1483 1483 1485 1485 1486 1487 1488 1488 1487 1487 1487 1486 1485 1483 1481 1479 1477 1475
1475 1475 1468 1466 1464 1467 1483 1487 1476 1472 1472 1472 1472 1474 1474 1472 1472 1472 1472 1473 1473 1474 1475 1475 1476 1476 1477 1479 1479 1480 1481 1482 1482 1481 1481 1481 1481 1480 1479 1477 1475 1473 1471 1469
1472 1480 1483 1471 1469 1476 1482 1477 1476 1476 1475 1474 1474 1474 1473 1472 1471 1471 1471 1470 1470 1470 1471 1472 1472 1472 1473 1474 1475 1477 1477 1477 1476 1475 1474 1474 1474 1473 1472 1471 1469 1466 1464 1463
1464 1470 1472 1471 1474 1477 1478 1478 1478 1478 1477 1476 1475 1475 1475 1474 1473 1472 1471 1470 1469 1469 1468 1469 1469 1469 1469 1470 1471 1472 1472 1471 1470 1469 1469 1468 1467 1466 1465 1464 1462 1460 1459 1457
1464 1467 1472 1474 1476 1477 1479 1479 1479 1479 1478 1478 1478 1477 1477 1476 1475 1473 1472 1471 1469 1468 1467 1467 1467 1466 1466 1466 1466 1466 1466 1466 1465 1464 1462 1461 1460 1459 1458 1457 1456 1454 1453 1451
1463 1469 1473 1477 1478 1478 1479 1479 1479 1480 1480 1480 1480 1480 1479 1478 1477 1476 1474 1472 1470 1469 1468 1467 1466 1465 1464 1463 1463 1462 1462 1461 1460 1458 1456 1455 1453 1451 1450 1449 1449 1448 1446 1445
1463 1466 1469 1476 1478 1478 1479 1480 1481 1482 1483 1483 1482 1482 1481 1480 1479 1477 1476 1474 1472 1470 1468 1467 1465 1463 1462 1461 1459 1458 1457 1456 1454 1453 1451 1449 1446 1444 1442 1441 1440 1439 1438 1437
1463 1465 1469 1473 1476 1478 1479 1481 1482 1483 1484 1485 1484 1484 1483 1481 1480 1478 1477 1474 1473 1471 1469 1466 1464 1462 1460 1458 1456 1454 1452 1451 1449 1447 1445 1442 1440 1437 1435 1433 1432 1430 1429 1428
1467 1469 1471 1474 1477 1479 1481 1482 1483 1484 1485 1485 1485 1484 1483 1482 1480 1478 1476 1474 1472 1470 1468 1465 1463 1460 1457 1455 1452 1450 1448 1445 1443 1440 1437 1435 1432 1430 1428 1426 1424 1422 1421 1419
1469 1471 1474 1477 1480 1482 1483 1484 1485 1485 1485 1485 1484 1483 1482 1481 1479 1477 1475 1473 1471 1468 1466 1463 1461 1458 1455 1452 1449 1446 1443 1440 1437 1434 1430 1428 1425 1422 1420 1418 1416 1415 1413 1412
1471 1474 1477 1480 1482 1484 1485 1486 1486 1486 1485 1485 1483 1482 1481 1479 1477 1475 1473 1471 1469 1466 1463 1461 1458 1454 1451 1448 1445 1441 1438 1435 1431 1427 1423 1420 1418 1415 1413 1411 1409 1408 1406 1405
1474 1477 1480 1482 1485 1486 1487 1487 1486 1486 1485 1484 1482 1481 1479 1477 1475 1473 1471 1468 1466 1463 1461 1458 1454 1450 1448 1445 1441 1437 1433 1429 1425 1421 1417 1413 1410 1408 1405 1403 1402 1400 1399 1398
1478 1481 1484 1486 1487 1487 1487 1487 1486 1485 1484 1482 1481 1479 1477 1475 1473 1470 1468 1465 1463 1460 1457 1454 1450 1447 1444 1440 1436 1433 1429 1424 1420 1416 1411 1407 1404 1401 1398 1396 1394 1393 1392 1391
1482 1484 1485 1486 1487 1487 1486 1486 1485 1483 1482 1480 1478 1476 1474 1472 1470 1467 1465 1462 1458 1455 1452 1450 1446 1443 1440 1436 1431 1427 1423 1419 1414 1410 1405 1401 1397 1394 1391 1389 1387 1386 1386 1385
1484 1485 1485 1486 1486 1485 1485 1484 1482 1481 1479 1477 1475 1473 1471 1469 1467 1464 1461 1458 1454 1451 1448 1445 1442 1438 1435 1430 1426 1422 1418 1413 1408 1403 1399 1395 1391 1388 1385 1383 1381 1380 1380 1380
1483 1484 1484 1484 1484 1483 1483 1481 1480 1478 1476 1474 1472 1470 1467 1465 1463 1459 1456 1453 1450 1447 1444 1441 1437 1433 1429 1425 1421 1416 1412 1407 1402 1397 1393 1389 1385 1382 1379 1377 1376 1375 1374 1374
1483 1484 1483 1483 1482 1481 1480 1478 1476 1474 1472 1470 1468 1466 1463 1461 1458 1455 1452 1449 1445 1442 1440 1437 1433 1428 1424 1419 1415 1410 1406 1401 1396 1391 1387 1383 1379 1376 1374 1372 1371 1370 1370 1369
1482 1482 1482 1481 1479 1478 1476 1474 1472 1470 1468 1466 1463 1461 1458 1456 1453 1450 1447 1444 1441 1438 1435 1432 1427 1423 1418 1414 1409 1405 1400 1395 1391 1387 1383 1379 1375 1372 1370 1369 1367 1367 1366 1366
1481 1480 1479 1477 1476 1474 1471 1469 1467 1465 1463 1461 1458 1456 1454 1451 1449 1446 1444 1440 1437 1434 1431 1426 1422 1418 1413 1409 1404 1400 1396 1391 1387 1383 1380 1376 1373 1370 1367 1366 1365 1365 1365 1364
1478 1476 1475 1473 1471 1469 1466 1464 1462 1460 1458 1456 1454 1452 1450 1448 1446 1443 1440 1437 1433 1429 1426 1422 1417 1413 1409 1405 1401 1397 1393 1389 1385 1381 1377 1374 1371 1368 1366 1365 1364 1364 1363 1362
1473 1472 1470 1469 1467 1465 1463 1461 1459 1457 1455 1453 1451 1449 1447 1445 1442 1439 1437 1434 1430 1426 1422 1419 1414 1410 1406 1402 1398 1395 1391 1387 1383 1380 1377 1374 1371 1368 1367 1365 1364 1363 1362 1361
1469 1467 1465 1464 1462 1461 1459 1457 1456 1454 1452 1450 1448 1446 1444 1441 1439 1436 1433 1430 1427 1423 1420 1416 1412 1408 1404 1400 1397 1393 1390 1386 1383 1380 1377 1374 1371 1369 1367 1365 1364 1363 1361 1360